Location: Stanford
(52.2833°N, 2.4333°W)
Time: 18:23:37
(UTC+00:00)

ATLAS 3B R/B - Pass Details

Date: 22 January 2021
Orbit: 1006 x 1189 km, 63.8° (Epoch: 24 February)

Event Time Altitude Azimuth Distance (km) Brightness Sun altitude
Rises 17:12:41 0° 314° (NW) 3,860 5.9 -5.4°
Reaches altitude 10° 17:15:26 10° 307° (NW) 2,928 5.4 -5.8°
Maximum altitude 17:21:50 41° 240° (WSW) 1,557 4.3 -6.7°
Drops below altitude 10° 17:28:30 10° 173° (S) 3,035 5.3 -7.6°
Sets 17:31:24 0° 167° (SSE) 4,015 5.8 -8.0°
